Change the Weather History Date:

Monday, October 29, 2012

  Actual Average Record
Temperature  
Mean Temperature 34 °F -  
Max Temperature 44 °F 45 °F 69 °F (1950)
Min Temperature 24 °F 26 °F 8 °F (2013)
Degree Days  
Heating Degree Days 31    
Moisture  
Dew Point 27 °F    
Average Humidity 73    
Maximum Humidity 86    
Minimum Humidity 61    
Precipitation  
Precipitation 0.00 in - - ()
Sea Level Pressure  
Sea Level Pressure 30.24 in    
Wind  
Wind Speed 9 mph (ESE)    
Max Wind Speed 13 mph    
Max Gust Speed -    
Visibility 10 miles    
Events Rain , Snow    
Averages and records for this station are not official NWS values.
T = Trace of Precipitation, MM = Missing Value Source: NWS Daily Summary

Daily Weather History Graph

Daily Weather History Graph

Search for Another Location

Airport or City:

Trip Planner

Search our weather history database for the weather conditions in past years. The results will help you decide how hot, cold, wet, or windy it might be!

Date:

Astronomy

Oct. 29, 2012 Rise Set
Actual Time 8:05 AM CDT 6:06 PM CDT
Civil Twilight 7:32 AM CDT 6:39 PM CDT
Nautical Twilight 6:55 AM CDT 7:16 PM CDT
Astronomical Twilight 6:19 AM CDT 7:52 PM CDT
Moon 5:55 PM CDT (10/29) 7:59 AM CDT (10/29)
Length of Visible Light 11h 06m
Length of Day
10h 00m
Full, 100% of the Moon is Illuminated
Oct 29
Full
Oct 29
Full
Nov 6
Last Quarter
Nov 13
New
Nov 20
First Quarter

Hourly Weather History & Observations

Time (CDT) Temp. Windchill Dew Point Humidity Pressure Visibility Wind Dir Wind Speed Gust Speed Precip Events Conditions
12:14 AM 24.8 °F 16.1 °F 17.6 °F 74% 30.30 in 10.0 mi East 8.1 mph - N/A   Scattered Clouds
12:34 AM 24.8 °F 15.3 °F 17.6 °F 74% 30.29 in 10.0 mi East 9.2 mph - N/A   Mostly Cloudy
12:54 AM 26.6 °F 17.5 °F 17.6 °F 69% 30.29 in 10.0 mi East 9.2 mph - N/A   Mostly Cloudy
1:14 AM 26.6 °F 16.8 °F 17.6 °F 69% 30.29 in 10.0 mi East 10.4 mph - N/A   Overcast
1:34 AM 26.6 °F 16.8 °F 19.4 °F 74% 30.28 in 10.0 mi East 10.4 mph - N/A   Overcast
1:54 AM 26.6 °F 16.8 °F 19.4 °F 74% 30.28 in 10.0 mi East 10.4 mph - N/A   Mostly Cloudy
2:14 AM 28.4 °F 19.7 °F 19.4 °F 69% 30.28 in 10.0 mi East 9.2 mph - N/A   Scattered Clouds
2:34 AM 28.4 °F 20.4 °F 19.4 °F 69% 30.28 in 10.0 mi East 8.1 mph - N/A   Mostly Cloudy
2:54 AM 28.4 °F 19.7 °F 19.4 °F 69% 30.27 in 10.0 mi East 9.2 mph - N/A   Scattered Clouds
3:14 AM 28.4 °F 19.1 °F 21.2 °F 74% 30.27 in 10.0 mi East 10.4 mph - N/A   Clear
3:34 AM 28.4 °F 19.7 °F 21.2 °F 74% 30.27 in 10.0 mi East 9.2 mph - N/A   Clear
3:54 AM 30.2 °F 21.9 °F 21.2 °F 69% 30.27 in 10.0 mi East 9.2 mph - N/A   Mostly Cloudy
4:14 AM 30.2 °F 21.3 °F 21.2 °F 69% 30.26 in 10.0 mi East 10.4 mph - N/A   Scattered Clouds
4:34 AM 30.2 °F 21.3 °F 21.2 °F 69% 30.25 in 10.0 mi East 10.4 mph - N/A   Scattered Clouds
4:54 AM 30.2 °F 21.3 °F 21.2 °F 69% 30.25 in 10.0 mi East 10.4 mph - N/A   Clear
5:14 AM 30.2 °F 21.9 °F 21.2 °F 69% 30.25 in 10.0 mi East 9.2 mph - N/A   Clear
5:54 AM 30.2 °F 21.9 °F 23.0 °F 75% 30.25 in 10.0 mi East 9.2 mph - N/A   Clear
6:14 AM 30.2 °F 22.6 °F 23.0 °F 75% 30.24 in 10.0 mi East 8.1 mph - N/A   Clear
6:34 AM 30.2 °F 21.9 °F 23.0 °F 75% 30.24 in 10.0 mi East 9.2 mph - N/A   Scattered Clouds
6:55 AM 30.2 °F 22.6 °F 23.0 °F 75% 30.24 in 10.0 mi East 8.1 mph - N/A   Overcast
7:14 AM 30.2 °F 22.6 °F 24.8 °F 80% 30.24 in 10.0 mi East 8.1 mph - N/A   Overcast
7:34 AM 30.2 °F 22.6 °F 24.8 °F 80% 30.24 in 10.0 mi East 8.1 mph - N/A   Overcast
7:54 AM 30.2 °F 22.6 °F 24.8 °F 80% 30.24 in 10.0 mi East 8.1 mph - N/A   Overcast
8:14 AM 30.2 °F 21.9 °F 24.8 °F 80% 30.25 in 10.0 mi East 9.2 mph - N/A   Mostly Cloudy
8:34 AM 30.2 °F 21.9 °F 26.6 °F 86% 30.25 in 10.0 mi East 9.2 mph - N/A   Scattered Clouds
8:54 AM 30.2 °F 21.3 °F 26.6 °F 86% 30.25 in 10.0 mi East 10.4 mph - N/A   Clear
9:34 AM 32.0 °F 23.6 °F 26.6 °F 80% 30.25 in 4.0 mi East 10.4 mph - N/A Snow Light Snow
9:54 AM 32.0 °F 24.8 °F 26.6 °F 80% 30.25 in 7.0 mi ESE 8.1 mph - N/A   Clear
10:14 AM 33.8 °F 27.7 °F 28.4 °F 81% 30.25 in 10.0 mi ESE 6.9 mph - N/A   Clear
10:34 AM 33.8 °F 27.7 °F 28.4 °F 81% 30.25 in 10.0 mi East 6.9 mph - N/A   Clear
10:54 AM 33.8 °F 27.7 °F 28.4 °F 81% 30.24 in 10.0 mi ESE 6.9 mph - N/A   Light Drizzle
11:14 AM 35.6 °F 29.9 °F 28.4 °F 75% 30.24 in 10.0 mi East 6.9 mph - N/A Rain Light Rain
11:34 AM 35.6 °F 29.2 °F 30.2 °F 81% 30.24 in 10.0 mi ESE 8.1 mph - N/A   Clear
12:55 PM 39.2 °F 32.0 °F 33.8 °F 81% 30.23 in 10.0 mi ESE 11.5 mph - N/A   Clear
1:14 PM 39.2 °F 32.5 °F 33.8 °F 81% 30.22 in 10.0 mi East 10.4 mph - N/A   Scattered Clouds
1:34 PM 39.2 °F 34.2 °F 33.8 °F 81% 30.22 in 10.0 mi East 6.9 mph - N/A   Clear
1:55 PM 41.0 °F 35.8 °F 33.8 °F 76% 30.22 in 10.0 mi ESE 8.1 mph - N/A   Clear
2:14 PM 41.0 °F 36.4 °F 33.8 °F 76% 30.21 in 10.0 mi ESE 6.9 mph - N/A   Clear
2:34 PM 42.8 °F 38.0 °F 33.8 °F 70% 30.21 in 10.0 mi ESE 8.1 mph - N/A   Clear
2:55 PM 42.8 °F 37.0 °F 33.8 °F 70% 30.21 in 10.0 mi ESE 10.4 mph - N/A   Clear
3:14 PM 42.8 °F 36.2 °F 33.8 °F 70% 30.20 in 10.0 mi ESE 12.7 mph - N/A   Scattered Clouds
3:34 PM 42.8 °F 38.0 °F 33.8 °F 70% 30.20 in 10.0 mi East 8.1 mph - N/A   Scattered Clouds
3:55 PM 42.8 °F 37.5 °F 33.8 °F 70% 30.20 in 10.0 mi ESE 9.2 mph - N/A   Scattered Clouds
4:14 PM 42.8 °F 37.0 °F 33.8 °F 70% 30.20 in 10.0 mi East 10.4 mph - N/A   Scattered Clouds
4:34 PM 44.6 °F 39.7 °F 33.8 °F 66% 30.20 in 10.0 mi ESE 9.2 mph - N/A   Mostly Cloudy
4:55 PM 44.6 °F 39.2 °F 32.0 °F 61% 30.21 in 10.0 mi ESE 10.4 mph - N/A   Mostly Cloudy
5:14 PM 42.8 °F 37.0 °F 32.0 °F 66% 30.21 in 10.0 mi SE 10.4 mph - N/A   Mostly Cloudy
5:34 PM 42.8 °F 37.5 °F 30.2 °F 61% 30.20 in 10.0 mi SE 9.2 mph - N/A   Scattered Clouds
5:54 PM 42.8 °F 37.5 °F 30.2 °F 61% 30.21 in 10.0 mi SE 9.2 mph - N/A   Mostly Cloudy
6:14 PM 41.0 °F 37.1 °F 30.2 °F 65% 30.22 in 10.0 mi ESE 5.8 mph - N/A   Scattered Clouds
6:34 PM 39.2 °F 34.2 °F 28.4 °F 65% 30.21 in 10.0 mi East 6.9 mph - N/A   Clear
6:54 PM 39.2 °F 33.6 °F 28.4 °F 65% 30.22 in 10.0 mi East 8.1 mph - N/A   Clear
7:14 PM 37.4 °F 32.1 °F 28.4 °F 70% 30.22 in 10.0 mi East 6.9 mph - N/A   Clear
7:34 PM 37.4 °F 31.4 °F 28.4 °F 70% 30.22 in 10.0 mi East 8.1 mph - N/A   Clear
7:54 PM 37.4 °F 30.8 °F 28.4 °F 70% 30.22 in 10.0 mi East 9.2 mph - N/A   Clear
8:14 PM 37.4 °F 30.8 °F 28.4 °F 70% 30.22 in 10.0 mi ESE 9.2 mph - N/A   Clear
8:34 PM 37.4 °F 30.3 °F 28.4 °F 70% 30.22 in 10.0 mi ESE 10.4 mph - N/A   Clear
8:54 PM 35.6 °F 29.2 °F 26.6 °F 70% 30.22 in 10.0 mi ESE 8.1 mph - N/A   Clear
9:14 PM 35.6 °F 29.9 °F 26.6 °F 70% 30.22 in 10.0 mi ESE 6.9 mph - N/A   Clear
9:34 PM 35.6 °F 29.9 °F 26.6 °F 70% 30.22 in 10.0 mi ESE 6.9 mph - N/A   Clear
9:54 PM 35.6 °F 29.9 °F 26.6 °F 70% 30.22 in 10.0 mi ESE 6.9 mph - N/A   Clear
10:14 PM 35.6 °F 29.9 °F 26.6 °F 70% 30.22 in 10.0 mi ESE 6.9 mph - N/A   Clear
10:34 PM 35.6 °F 29.2 °F 26.6 °F 70% 30.22 in 10.0 mi ESE 8.1 mph - N/A   Clear
10:54 PM 35.6 °F 29.2 °F 26.6 °F 70% 30.22 in 10.0 mi ESE 8.1 mph - N/A   Clear
11:14 PM 35.6 °F 29.9 °F 26.6 °F 70% 30.22 in 10.0 mi ESE 6.9 mph - N/A   Clear
11:34 PM 35.6 °F 28.6 °F 26.6 °F 70% 30.22 in 10.0 mi ESE 9.2 mph - N/A   Clear
11:54 PM 35.6 °F 28.6 °F 26.6 °F 70% 30.23 in 10.0 mi ESE 9.2 mph - N/A   Clear